Hillsdale, MI

2:12 AM EST on November 15, 2019 (GMT -0500)
Hillsdale Municipal

Weather History for KJYM - September, 2019

Change the Weather History Date:

Thursday, September 12, 2019

  Actual Average Record
Temperature  
Mean Temperature 71 °F -  
Max Temperature 78 °F 75 °F 93 °F (1952)
Min Temperature 64 °F 50 °F 32 °F (1955)
Cooling Degree Days 6    
Growing Degree Days 21 (Base 50)    
Moisture  
Dew Point 67 °F    
Average Humidity 91    
Maximum Humidity 97    
Minimum Humidity 77    
Precipitation  
Precipitation 0.57 in - - ()
Sea Level Pressure  
Sea Level Pressure 30.15 in    
Wind  
Wind Speed 4 mph ()    
Max Wind Speed 16 mph    
Max Gust Speed 22 mph    
Visibility 7.0 miles    
Events Rain    
Averages and records for this station are not official NWS values.
T = Trace of Precipitation, MM = Missing Value Source: Averaged Metar Reports

Daily Weather History Graph

Daily Weather History Graph

Search for Another Location

Airport or City:

Astronomy

Sep. 12, 2019 Rise Set
Actual Time 7:15 AM EDT 7:53 PM EDT
Civil Twilight 6:47 AM EDT 8:21 PM EDT
Nautical Twilight 6:13 AM EDT 8:54 PM EDT
Astronomical Twilight 5:39 AM EDT 9:28 PM EDT
Moon 7:39 PM EDT (9/12) 5:31 AM EDT (9/12)
Length of Visible Light 13h 34m
Length of Day
12h 38m
Waxing Gibbous, 98% of the Moon is Illuminated
Sep 12
Waxing Gibbous
Sep 14
Full
Sep 21
Last Quarter
Sep 28
New
Oct 5
First Quarter

Hourly Weather History & Observations

Time (EDT) Temp. Dew Point Humidity Pressure Visibility Wind Dir Wind Speed Gust Speed Precip Events Conditions
12:19 AM 68.0 °F 64.8 °F 89% 30.08 in 7.0 mi Calm Calm - 0.13 in Rain Light Rain
12:37 AM 67.1 °F 64.9 °F 93% 30.08 in 10.0 mi Calm Calm - 0.13 in   Scattered Clouds
12:55 AM 66.6 °F 65.3 °F 96% 30.08 in 10.0 mi Calm Calm - 0.13 in   Scattered Clouds
1:15 AM 66.7 °F 65.3 °F 95% 30.08 in 10.0 mi Calm Calm - N/A   Scattered Clouds
1:16 AM 66.9 °F 65.3 °F 95% 30.08 in 10.0 mi Calm Calm - N/A   Scattered Clouds
1:35 AM 67.5 °F 66.0 °F 95% 30.08 in 7.0 mi Calm Calm - 0.04 in Rain Rain
1:40 AM 67.3 °F 65.7 °F 95% 30.08 in 7.0 mi Calm Calm - 0.04 in Rain Light Rain
1:58 AM 67.3 °F 66.0 °F 96% 30.10 in 10.0 mi North 12.7 mph - 0.04 in Rain Light Rain
2:16 AM 68.4 °F 66.4 °F 93% 30.11 in 5.0 mi NNW 9.2 mph - 0.05 in Rain Heavy Rain
2:35 AM 68.0 °F 66.2 °F 94% 30.11 in 3.0 mi West 6.9 mph 19.6 mph 0.22 in Rain Heavy Rain
2:55 AM 67.5 °F 65.8 °F 95% 30.09 in 7.0 mi Calm Calm - 0.33 in Rain Light Rain
2:56 AM 67.5 °F 65.8 °F 95% 30.09 in 7.0 mi Calm Calm - 0.33 in Rain Light Rain
3:19 AM 67.3 °F 66.0 °F 96% 30.08 in 7.0 mi Calm Calm - 0.03 in Rain Rain
3:37 AM 67.5 °F 66.2 °F 96% 30.08 in 7.0 mi WSW 4.6 mph - 0.04 in Rain Rain
3:55 AM 67.5 °F 66.4 °F 96% 30.06 in 4.0 mi Calm Calm - 0.06 in Rain Rain
4:15 AM 67.5 °F 66.4 °F 96% 30.06 in 5.0 mi SSE 4.6 mph - N/A Rain Light Rain
4:16 AM 67.5 °F 66.4 °F 96% 30.06 in 5.0 mi SSE 4.6 mph - N/A Rain Light Rain
4:35 AM 67.3 °F 66.4 °F 97% 30.07 in 5.0 mi South 4.6 mph - N/A   Overcast
4:40 AM 67.3 °F 66.4 °F 97% 30.07 in 5.0 mi South 4.6 mph - N/A   Overcast
4:58 AM 67.3 °F 66.4 °F 97% 30.10 in 5.0 mi Calm Calm - N/A   Overcast
5:16 AM 68.0 °F 66.9 °F 96% 30.10 in 4.0 mi North 4.6 mph - N/A   Overcast
5:35 AM 68.0 °F 67.1 °F 97% 30.12 in 4.0 mi Calm Calm - N/A   Overcast
5:55 AM 68.0 °F 67.1 °F 97% 30.13 in 4.0 mi WSW 3.5 mph - N/A Rain Light Rain
5:56 AM 68.0 °F 67.1 °F 97% 30.13 in 4.0 mi WSW 3.5 mph - N/A Rain Light Rain
6:19 AM 67.5 °F 66.6 °F 97% 30.13 in 3.0 mi Calm Calm - N/A   Mostly Cloudy
6:37 AM 68.0 °F 67.1 °F 97% 30.14 in 3.0 mi Calm Calm - N/A   Mostly Cloudy
6:55 AM 67.3 °F 66.4 °F 97% 30.14 in 2.5 mi Calm Calm - N/A   Overcast
7:15 AM 67.5 °F 66.4 °F 96% 30.14 in 3.0 mi Calm Calm - N/A   Mostly Cloudy
7:35 AM 67.1 °F 66.2 °F 97% 30.16 in 1.0 mi Calm Calm - N/A   Overcast
7:40 AM 66.6 °F 65.7 °F 97% 30.16 in 1.0 mi Calm Calm - N/A   Overcast
7:58 AM 68.0 °F 67.1 °F 97% 30.16 in 1.8 mi Calm Calm - N/A   Overcast
8:16 AM 68.4 °F 67.5 °F 97% 30.17 in 3.0 mi Calm Calm - 0.01 in   Overcast
8:35 AM 68.7 °F 67.8 °F 97% 30.16 in 4.0 mi Calm Calm - 0.01 in   Overcast
8:55 AM 68.5 °F 67.6 °F 97% 30.16 in 5.0 mi NE 3.5 mph - 0.01 in   Overcast
9:19 AM 68.9 °F 67.6 °F 96% 30.16 in 5.0 mi ENE 5.8 mph - N/A   Overcast
9:55 AM 69.3 °F 67.8 °F 95% 30.16 in 7.0 mi ENE 3.5 mph - N/A   Overcast
10:15 AM 69.3 °F 67.5 °F 94% 30.17 in 7.0 mi NE 5.8 mph - N/A   Overcast
10:35 AM 70.2 °F 67.6 °F 92% 30.18 in 10.0 mi ENE 5.8 mph - N/A   Overcast
10:40 AM 70.2 °F 67.5 °F 91% 30.18 in 10.0 mi East 5.8 mph - N/A   Overcast
10:58 AM 69.1 °F 67.1 °F 93% 30.18 in 3.0 mi NE 4.6 mph - N/A   Overcast
11:16 AM 69.1 °F 67.6 °F 95% 30.18 in 4.0 mi ENE 5.8 mph - N/A   Overcast
11:35 AM 70.2 °F 67.8 °F 92% 30.19 in 10.0 mi ENE 4.6 mph - N/A   Overcast
11:55 AM 70.3 °F 67.5 °F 91% 30.19 in 10.0 mi ENE 4.6 mph - N/A   Overcast
11:56 AM 70.3 °F 67.5 °F 91% 30.19 in 10.0 mi ENE 4.6 mph - N/A   Overcast
12:19 PM 71.1 °F 67.3 °F 88% 30.19 in 10.0 mi ENE 3.5 mph - N/A   Overcast
12:37 PM 72.0 °F 68.0 °F 87% 30.18 in 10.0 mi ENE 3.5 mph - N/A   Overcast
12:55 PM 72.9 °F 67.8 °F 84% 30.19 in 10.0 mi Calm Calm - N/A   Overcast
1:15 PM 73.6 °F 68.7 °F 85% 30.18 in 10.0 mi ENE 4.6 mph - N/A   Overcast
1:16 PM 73.6 °F 68.5 °F 84% 30.18 in 10.0 mi Calm Calm - N/A   Overcast
1:35 PM 74.5 °F 68.5 °F 82% 30.18 in 10.0 mi ENE 4.6 mph - N/A   Overcast
1:40 PM 74.7 °F 69.1 °F 83% 30.18 in 10.0 mi ENE 3.5 mph - N/A   Overcast
1:58 PM 75.2 °F 69.1 °F 81% 30.18 in 10.0 mi ENE 5.8 mph - N/A   Overcast
2:16 PM 75.4 °F 69.1 °F 81% 30.18 in 10.0 mi Calm Calm - N/A   Overcast
2:35 PM 75.4 °F 68.9 °F 80% 30.17 in 10.0 mi Calm Calm - N/A   Overcast
2:55 PM 76.6 °F 69.8 °F 79% 30.17 in 10.0 mi Calm Calm - N/A   Overcast
2:56 PM 76.8 °F 70.0 °F 79% 30.17 in 10.0 mi ESE 3.5 mph - N/A   Overcast
3:19 PM 78.4 °F 70.9 °F 77% 30.17 in 10.0 mi ENE 4.6 mph - N/A   Mostly Cloudy
3:37 PM 77.0 °F 69.3 °F 77% 30.17 in 10.0 mi East 3.5 mph - N/A   Overcast
3:55 PM 77.9 °F 70.7 °F 78% 30.16 in 10.0 mi East 4.6 mph - N/A   Mostly Cloudy
4:15 PM 76.5 °F 69.6 °F 79% 30.16 in 10.0 mi East 9.2 mph - N/A   Mostly Cloudy
4:16 PM 76.5 °F 69.6 °F 79% 30.16 in 10.0 mi East 9.2 mph - N/A   Mostly Cloudy
4:35 PM 76.3 °F 69.6 °F 80% 30.16 in 10.0 mi ENE 8.1 mph - N/A   Mostly Cloudy
4:40 PM 76.3 °F 69.8 °F 80% 30.16 in 10.0 mi ENE 6.9 mph - N/A   Mostly Cloudy
4:58 PM 75.7 °F 69.4 °F 81% 30.16 in 10.0 mi East 9.2 mph - N/A   Mostly Cloudy
5:16 PM 76.5 °F 69.4 °F 79% 30.15 in 10.0 mi East 6.9 mph - N/A   Scattered Clouds
5:35 PM 75.9 °F 69.3 °F 80% 30.15 in 10.0 mi ESE 6.9 mph - N/A   Mostly Cloudy
5:36 PM 75.7 °F 69.3 °F 80% 30.15 in 10.0 mi East 6.9 mph - N/A   Mostly Cloudy
5:55 PM 73.6 °F 68.5 °F 84% 30.15 in 10.0 mi East 9.2 mph - N/A   Overcast
5:56 PM 73.6 °F 68.5 °F 84% 30.16 in 10.0 mi East 9.2 mph - N/A   Overcast
6:19 PM 72.1 °F 67.5 °F 85% 30.17 in 10.0 mi East 10.4 mph - N/A   Overcast
6:37 PM 71.1 °F 66.9 °F 87% 30.16 in 10.0 mi East 8.1 mph - N/A   Overcast
6:55 PM 70.5 °F 66.4 °F 87% 30.17 in 10.0 mi East 11.5 mph - N/A   Overcast
7:15 PM 69.8 °F 66.2 °F 88% 30.17 in 10.0 mi East 9.2 mph - N/A   Overcast
7:16 PM 69.8 °F 66.2 °F 88% 30.17 in 10.0 mi East 10.4 mph - N/A   Overcast
7:35 PM 69.3 °F 66.2 °F 90% 30.17 in 10.0 mi East 10.4 mph 16.1 mph N/A   Overcast
7:40 PM 69.3 °F 66.2 °F 90% 30.16 in 10.0 mi East 11.5 mph 17.3 mph N/A   Overcast
7:58 PM 68.5 °F 66.2 °F 92% 30.17 in 10.0 mi East 8.1 mph - N/A   Overcast
8:16 PM 68.0 °F 65.7 °F 92% 30.17 in 5.0 mi East 12.7 mph - N/A   Overcast
8:35 PM 67.5 °F 65.3 °F 93% 30.17 in 5.0 mi East 10.4 mph - N/A   Overcast
8:36 PM 67.5 °F 65.3 °F 93% 30.17 in 5.0 mi East 10.4 mph - N/A   Overcast
8:55 PM 67.5 °F 65.3 °F 93% 30.18 in 5.0 mi East 10.4 mph - N/A   Overcast
8:56 PM 67.5 °F 65.3 °F 93% 30.18 in 5.0 mi East 10.4 mph - N/A   Overcast
9:19 PM 67.1 °F 65.1 °F 93% 30.19 in 5.0 mi East 13.8 mph - N/A   Overcast
9:37 PM 66.7 °F 64.9 °F 94% 30.19 in 7.0 mi East 9.2 mph - N/A   Overcast
9:55 PM 66.6 °F 64.6 °F 93% 30.19 in 7.0 mi East 11.5 mph 21.9 mph N/A   Overcast
10:15 PM 66.0 °F 64.2 °F 94% 30.19 in 5.0 mi ESE 13.8 mph 20.7 mph N/A   Overcast
10:16 PM 65.8 °F 64.0 °F 94% 30.19 in 5.0 mi ESE 16.1 mph 19.6 mph N/A   Overcast
10:35 PM 65.5 °F 63.9 °F 94% 30.19 in 4.0 mi East 12.7 mph 19.6 mph N/A   Overcast
10:40 PM 65.3 °F 63.9 °F 95% 30.19 in 4.0 mi East 15.0 mph 20.7 mph N/A   Overcast
11:16 PM 64.9 °F 63.9 °F 96% 30.20 in 2.0 mi ESE 12.7 mph 21.9 mph N/A   Overcast
11:35 PM 64.8 °F 63.7 °F 96% 30.20 in 2.0 mi East 12.7 mph 17.3 mph N/A   Overcast
11:36 PM 64.8 °F 63.7 °F 96% 30.20 in 2.0 mi East 11.5 mph 17.3 mph N/A   Overcast
11:55 PM 64.8 °F 63.7 °F 96% 30.19 in 2.0 mi East 11.5 mph 18.4 mph N/A   Overcast
11:56 PM 64.8 °F 63.7 °F 96% 30.19 in 2.0 mi East 13.8 mph 18.4 mph N/A   Overcast